| time (UTC) | temp C | wind direction | speed KPH | gust KPH | rain 1hr cm | rain 24hr cm | rain mn cm | humidity % | barometer mb |
| 20260507064944 | 16 | 250 | 6.4 | 14.5 | 0.00 | 0.00 | 0.00 | 53 | 1013.2 |
| 20260507064441 | 16 | 249 | 4.8 | 14.5 | 0.00 | 0.00 | 0.00 | 53 | 1013.2 |
| 20260507063943 | 16 | 250 | 3.2 | 9.7 | 0.00 | 0.00 | 0.00 | 53 | 1013.1 |
| 20260507063439 | 16 | 250 | 4.8 | 14.5 | 0.00 | 0.00 | 0.00 | 53 | 1013.1 |
| 20260507062936 | 17 | 250 | 4.8 | 17.7 | 0.00 | 0.00 | 0.00 | 52 | 1013.2 |
| 20260507062435 | 17 | 249 | 4.8 | 17.7 | 0.00 | 0.00 | 0.00 | 52 | 1013.2 |
| 20260507061934 | 17 | 250 | 4.8 | 11.3 | 0.00 | 0.00 | 0.00 | 52 | 1013.2 |
| 20260507061433 | 17 | 250 | 4.8 | 12.9 | 0.00 | 0.00 | 0.00 | 53 | 1013.2 |
| 20260507060930 | 17 | 249 | 4.8 | 12.9 | 0.00 | 0.00 | 0.00 | 54 | 1013.2 |
| 20260507060431 | 17 | 250 | 4.8 | 14.5 | 0.00 | 0.00 | 0.00 | 54 | 1013.1 |
| 20260507055930 | 17 | 249 | 4.8 | 14.5 | 0.00 | 0.00 | 0.00 | 54 | 1013.1 |
| 20260507055431 | 17 | 249 | 4.8 | 12.9 | 0.00 | 0.00 | 0.00 | 53 | 1013.2 |
| 20260507054429 | 17 | 250 | 3.2 | 9.7 | 0.00 | 0.00 | 0.00 | 52 | 1013.1 |
| 20260507053929 | 17 | 250 | 3.2 | 16.1 | 0.00 | 0.00 | 0.00 | 51 | 1013.1 |
| 20260507053427 | 17 | 250 | 3.2 | 16.1 | 0.00 | 0.00 | 0.00 | 51 | 1013.0 |
| 20260507052927 | 17 | 250 | 3.2 | 9.7 | 0.00 | 0.00 | 0.00 | 51 | 1012.9 |
| 20260507052426 | 17 | 250 | 4.8 | 9.7 | 0.00 | 0.00 | 0.00 | 50 | 1012.9 |
| 20260507051926 | 17 | 250 | 3.2 | 9.7 | 0.00 | 0.00 | 0.00 | 51 | 1012.9 |
| 20260507051425 | 18 | 250 | 3.2 | 9.7 | 0.00 | 0.00 | 0.00 | 52 | 1012.9 |
| 20260507050423 | 18 | 250 | 3.2 | 9.7 | 0.00 | 0.00 | 0.00 | 52 | 1012.8 |
| 20260507044923 | 18 | 249 | 6.4 | 17.7 | 0.00 | 0.00 | 0.00 | 52 | 1012.8 |
| 20260507044423 | 18 | 250 | 6.4 | 17.7 | 0.00 | 0.00 | 0.00 | 52 | 1012.8 |
| 20260507043423 | 18 | 250 | 6.4 | 16.1 | 0.00 | 0.00 | 0.00 | 52 | 1012.8 |
| 20260507042923 | 18 | 250 | 6.4 | 16.1 | 0.00 | 0.00 | 0.00 | 51 | 1012.8 |
| 20260507041920 | 18 | 250 | 4.8 | 11.3 | 0.00 | 0.00 | 0.00 | 52 | 1012.7 |
| 20260507041421 | 18 | 250 | 4.8 | 9.7 | 0.00 | 0.00 | 0.00 | 52 | 1012.7 |
| 20260507040921 | 18 | 250 | 4.8 | 9.7 | 0.00 | 0.00 | 0.00 | 51 | 1012.8 |
| 20260507035919 | 18 | 249 | 3.2 | 8.0 | 0.00 | 0.00 | 0.00 | 52 | 1012.7 |
| 20260507035419 | 18 | 250 | 4.8 | 19.3 | 0.00 | 0.00 | 0.00 | 52 | 1012.6 |
| 20260507034920 | 18 | 250 | 6.4 | 19.3 | 0.00 | 0.00 | 0.00 | 53 | 1012.6 |
| 20260507034420 | 17 | 249 | 3.2 | 11.3 | 0.00 | 0.00 | 0.00 | 57 | 1012.5 |
| 20260507033919 | 16 | 249 | 3.2 | 8.0 | 0.00 | 0.00 | 0.00 | 60 | 1012.5 |
| 20260507032419 | 16 | 250 | 6.4 | 6.4 | 0.00 | 0.00 | 0.00 | 65 | 1012.4 |
| 20260507031919 | 16 | 249 | 4.8 | 6.4 | 0.00 | 0.00 | 0.00 | 66 | 1012.4 |
| 20260507030917 | 16 | 249 | 4.8 | 6.4 | 0.00 | 0.00 | 0.00 | 64 | 1012.4 |
| 20260507030418 | 16 | 250 | 4.8 | 6.4 | 0.00 | 0.00 | 0.00 | 63 | 1012.4 |
| 20260507025916 | 17 | 250 | 4.8 | 6.4 | 0.00 | 0.00 | 0.00 | 62 | 1012.3 |
| 20260507025415 | 17 | 250 | 4.8 | 4.8 | 0.00 | 0.00 | 0.00 | 61 | 1012.4 |
| 20260507024914 | 17 | 249 | 4.8 | 4.8 | 0.00 | 0.00 | 0.00 | 60 | 1012.4 |
| 20260507024415 | 17 | 250 | 3.2 | 4.8 | 0.00 | 0.00 | 0.00 | 58 | 1012.4 |
| 20260507023415 | 18 | 249 | 1.6 | 3.2 | 0.00 | 0.00 | 0.00 | 58 | 1012.4 |
| 20260507021912 | 19 | 249 | 0.0 | 1.6 | 0.00 | 0.00 | 0.00 | 51 | 1012.5 |
| 20260507021412 | 19 | 249 | 0.0 | 1.6 | 0.00 | 0.00 | 0.00 | 48 | 1012.5 |
| 20260507020910 | 19 | 250 | 0.0 | 4.8 | 0.00 | 0.00 | 0.00 | 48 | 1012.5 |
| 20260507020410 | 20 | 250 | 0.0 | 4.8 | 0.00 | 0.00 | 0.00 | 49 | 1012.6 |
| 20260507015908 | 20 | 250 | 1.6 | 6.4 | 0.00 | 0.00 | 0.00 | 47 | 1012.6 |
| 20260507015409 | 20 | 250 | 1.6 | 6.4 | 0.00 | 0.00 | 0.00 | 48 | 1012.7 |
| 20260507014907 | 20 | 250 | 0.0 | 4.8 | 0.00 | 0.00 | 0.00 | 48 | 1012.7 |
| 20260507014404 | 20 | 250 | 1.6 | 3.2 | 0.00 | 0.00 | 0.00 | 48 | 1012.7 |
| 20260507013906 | 20 | 249 | 1.6 | 9.7 | 0.00 | 0.00 | 0.00 | 48 | 1012.7 |
| 20260507012903 | 20 | 249 | 0.0 | 4.8 | 0.00 | 0.00 | 0.00 | 47 | 1012.7 |
| 20260507012402 | 20 | 249 | 1.6 | 6.4 | 0.00 | 0.00 | 0.00 | 47 | 1012.7 |
| 20260507011901 | 20 | 250 | 1.6 | 6.4 | 0.00 | 0.00 | 0.00 | 47 | 1012.6 |
| 20260507011401 | 21 | 249 | 3.2 | 12.9 | 0.00 | 0.00 | 0.00 | 47 | 1012.7 |
| 20260507010359 | 21 | 250 | 3.2 | 11.3 | 0.00 | 0.00 | 0.00 | 44 | 1012.6 |
| 20260507005901 | 21 | 249 | 1.6 | 9.7 | 0.00 | 0.00 | 0.00 | 44 | 1012.7 |
| 20260507005400 | 21 | 250 | 1.6 | 16.1 | 0.00 | 0.00 | 0.00 | 45 | 1012.7 |
| 20260507004859 | 21 | 250 | 3.2 | 16.1 | 0.00 | 0.00 | 0.00 | 46 | 1012.7 |
| 20260507003857 | 21 | 249 | 6.4 | 17.7 | 0.00 | 0.00 | 0.00 | 45 | 1012.7 |
| 20260507002857 | 21 | 249 | 6.4 | 19.3 | 0.00 | 0.00 | 0.00 | 43 | 1012.7 |
| 20260507002357 | 21 | 249 | 4.8 | 16.1 | 0.00 | 0.00 | 0.00 | 44 | 1012.7 |
| 20260507001357 | 21 | 249 | 4.8 | 12.9 | 0.00 | 0.00 | 0.00 | 44 | 1012.8 |
| 20260507000857 | 21 | 250 | 4.8 | 12.9 | 0.00 | 0.00 | 0.00 | 44 | 1012.8 |
| 20260506235857 | 22 | 250 | 4.8 | 17.7 | 0.00 | 0.00 | 0.00 | 43 | 1012.7 |
| 20260506235356 | 22 | 250 | 6.4 | 16.1 | 0.00 | 0.00 | 0.00 | 43 | 1012.7 |
| 20260506234856 | 22 | 249 | 6.4 | 19.3 | 0.00 | 0.00 | 0.00 | 40 | 1012.6 |
| 20260506234353 | 22 | 249 | 4.8 | 19.3 | 0.00 | 0.00 | 0.00 | 41 | 1012.7 |
| 20260506233853 | 22 | 249 | 4.8 | 17.7 | 0.00 | 0.00 | 0.00 | 45 | 1012.8 |
| 20260506233353 | 22 | 250 | 8.0 | 22.5 | 0.00 | 0.00 | 0.00 | 40 | 1012.7 |
| 20260506232853 | 23 | 250 | 8.0 | 22.5 | 0.00 | 0.00 | 0.00 | 41 | 1012.7 |
| 20260506232353 | 23 | 250 | 4.8 | 17.7 | 0.00 | 0.00 | 0.00 | 46 | 1012.7 |
| 20260506230853 | 22 | 249 | 6.4 | 17.7 | 0.00 | 0.00 | 0.00 | 41 | 1012.7 |
| 20260506225852 | 22 | 250 | 6.4 | 16.1 | 0.00 | 0.00 | 0.00 | 43 | 1012.7 |
| 20260506225352 | 22 | 250 | 6.4 | 17.7 | 0.00 | 0.00 | 0.00 | 43 | 1012.8 |
| 20260506224852 | 23 | 250 | 9.7 | 20.9 | 0.00 | 0.00 | 0.00 | 40 | 1012.8 |
| 20260506224349 | 23 | 250 | 9.7 | 22.5 | 0.00 | 0.00 | 0.00 | 39 | 1012.9 |
| 20260506223847 | 22 | 249 | 8.0 | 22.5 | 0.00 | 0.00 | 0.00 | 40 | 1012.9 |
| 20260506222847 | 23 | 250 | 6.4 | 19.3 | 0.00 | 0.00 | 0.00 | 40 | 1013.0 |
| 20260506222348 | 23 | 250 | 8.0 | 19.3 | 0.00 | 0.00 | 0.00 | 40 | 1013.1 |
| 20260506221347 | 23 | 250 | 6.4 | 24.1 | 0.00 | 0.00 | 0.00 | 39 | 1013.2 |
| 20260506220847 | 23 | 250 | 6.4 | 16.1 | 0.00 | 0.00 | 0.00 | 40 | 1013.4 |
| 20260506220347 | 23 | 250 | 8.0 | 17.7 | 0.00 | 0.00 | 0.00 | 37 | 1013.5 |
| 20260506215847 | 23 | 250 | 8.0 | 17.7 | 0.00 | 0.00 | 0.00 | 38 | 1013.6 |
| 20260506215347 | 23 | 250 | 9.7 | 20.9 | 0.00 | 0.00 | 0.00 | 38 | 1013.6 |
| 20260506214346 | 23 | 250 | 9.7 | 24.1 | 0.00 | 0.00 | 0.00 | 39 | 1013.8 |
| 20260506213847 | 23 | 249 | 8.0 | 17.7 | 0.00 | 0.00 | 0.00 | 44 | 1013.7 |
| 20260506213347 | 23 | 250 | 8.0 | 19.3 | 0.00 | 0.00 | 0.00 | 42 | 1013.7 |
| 20260506212846 | 22 | 249 | 9.7 | 22.5 | 0.00 | 0.00 | 0.00 | 42 | 1013.9 |
| 20260506211847 | 22 | 249 | 12.9 | 27.4 | 0.00 | 0.00 | 0.00 | 41 | 1013.8 |
| 20260506211347 | 22 | 250 | 9.7 | 22.5 | 0.00 | 0.00 | 0.00 | 41 | 1013.6 |
| 20260506210847 | 22 | 250 | 8.0 | 17.7 | 0.00 | 0.00 | 0.00 | 40 | 1013.8 |
| 20260506210347 | 22 | 249 | 8.0 | 17.7 | 0.00 | 0.00 | 0.00 | 41 | 1013.8 |
| 20260506205837 | 22 | 249 | 9.7 | 24.1 | 0.00 | 0.00 | 0.00 | 41 | 1013.9 |
| 20260506205335 | 22 | 249 | 8.0 | 24.1 | 0.00 | 0.00 | 0.00 | 44 | 1013.7 |
| 20260506204834 | 22 | 250 | 8.0 | 19.3 | 0.00 | 0.00 | 0.00 | 44 | 1013.8 |
| 20260506204333 | 22 | 249 | 6.4 | 19.3 | 0.00 | 0.00 | 0.00 | 44 | 1013.9 |
| 20260506203832 | 22 | 250 | 3.2 | 17.7 | 0.00 | 0.00 | 0.00 | 44 | 1013.8 |
| 20260506203330 | 22 | 249 | 6.4 | 20.9 | 0.00 | 0.00 | 0.00 | 43 | 1013.9 |
| 20260506202830 | 22 | 250 | 6.4 | 20.9 | 0.00 | 0.00 | 0.00 | 43 | 1014.0 |
| 20260506202328 | 21 | 250 | 3.2 | 12.9 | 0.00 | 0.00 | 0.00 | 44 | 1014.1 |
| 20260506201827 | 21 | 250 | 3.2 | 16.1 | 0.00 | 0.00 | 0.00 | 48 | 1014.1 |
| 20260506201326 | 21 | 250 | 4.8 | 16.1 | 0.00 | 0.00 | 0.00 | 48 | 1014.2 |
| 20260506200824 | 21 | 249 | 4.8 | 12.9 | 0.00 | 0.00 | 0.00 | 47 | 1014.2 |
| 20260506200324 | 21 | 249 | 6.4 | 14.5 | 0.00 | 0.00 | 0.00 | 46 | 1014.2 |
| 20260506195822 | 21 | 249 | 8.0 | 14.5 | 0.00 | 0.00 | 0.00 | 46 | 1014.4 |
| 20260506195322 | 21 | 250 | 6.4 | 14.5 | 0.00 | 0.00 | 0.00 | 44 | 1014.3 |
| 20260506194320 | 21 | 250 | 4.8 | 11.3 | 0.00 | 0.00 | 0.00 | 47 | 1014.3 |
| 20260506193318 | 20 | 249 | 3.2 | 12.9 | 0.00 | 0.00 | 0.00 | 44 | 1014.4 |
| 20260506192318 | 20 | 250 | 4.8 | 12.9 | 0.00 | 0.00 | 0.00 | 44 | 1014.7 |
| 20260506191818 | 20 | 249 | 4.8 | 11.3 | 0.00 | 0.00 | 0.00 | 47 | 1014.7 |
| 20260506191316 | 20 | 250 | 4.8 | 11.3 | 0.00 | 0.00 | 0.00 | 45 | 1014.5 |
| 20260506185814 | 19 | 249 | 8.0 | 16.1 | 0.00 | 0.00 | 0.00 | 46 | 1014.8 |
| 20260506185314 | 19 | 250 | 9.7 | 17.7 | 0.00 | 0.00 | 0.00 | 44 | 1014.8 |
| 20260506184814 | 19 | 249 | 6.4 | 17.7 | 0.00 | 0.00 | 0.00 | 45 | 1014.8 |
| 20260506183810 | 20 | 249 | 8.0 | 17.7 | 0.00 | 0.00 | 0.00 | 42 | 1014.9 |
| 20260506183310 | 19 | 249 | 6.4 | 17.7 | 0.00 | 0.00 | 0.00 | 45 | 1014.9 |
| 20260506182810 | 19 | 249 | 8.0 | 22.5 | 0.00 | 0.00 | 0.00 | 45 | 1014.9 |
| 20260506182308 | 19 | 250 | 11.3 | 22.5 | 0.00 | 0.00 | 0.00 | 48 | 1015.0 |
| 20260506181808 | 19 | 249 | 9.7 | 22.5 | 0.00 | 0.00 | 0.00 | 45 | 1014.9 |
| 20260506181308 | 19 | 250 | 8.0 | 16.1 | 0.00 | 0.00 | 0.00 | 46 | 1015.0 |
| 20260506180807 | 19 | 249 | 8.0 | 16.1 | 0.00 | 0.00 | 0.00 | 45 | 1014.9 |
| 20260506175808 | 19 | 250 | 4.8 | 11.3 | 0.00 | 0.00 | 0.00 | 43 | 1015.0 |
| 20260506175306 | 19 | 250 | 3.2 | 11.3 | 0.00 | 0.00 | 0.00 | 47 | 1015.0 |
| 20260506174804 | 19 | 249 | 3.2 | 9.7 | 0.00 | 0.00 | 0.00 | 44 | 1014.9 |
| 20260506174304 | 18 | 250 | 3.2 | 11.3 | 0.00 | 0.00 | 0.00 | 41 | 1015.0 |
| 20260506173804 | 19 | 250 | 4.8 | 11.3 | 0.00 | 0.00 | 0.00 | 40 | 1015.0 |
| 20260506173303 | 19 | 249 | 4.8 | 11.3 | 0.00 | 0.00 | 0.00 | 44 | 1015.0 |
| 20260506172804 | 19 | 250 | 4.8 | 11.3 | 0.00 | 0.00 | 0.00 | 39 | 1015.0 |
| 20260506172306 | 19 | 249 | 4.8 | 9.7 | 0.00 | 0.00 | 0.00 | 40 | 1015.0 |
| 20260506171803 | 19 | 249 | 1.6 | 8.0 | 0.00 | 0.00 | 0.00 | 40 | 1014.9 |
| 20260506171300 | 19 | 250 | 1.6 | 8.0 | 0.00 | 0.00 | 0.00 | 44 | 1014.9 |
| 20260506170800 | 18 | 250 | 1.6 | 8.0 | 0.00 | 0.00 | 0.00 | 42 | 1014.9 |
| 20260506165758 | 18 | 250 | 1.6 | 4.8 | 0.00 | 0.00 | 0.00 | 41 | 1014.9 |
| 20260506164757 | 17 | 250 | 1.6 | 6.4 | 0.00 | 0.00 | 0.00 | 43 | 1014.9 |
| 20260506163756 | 17 | 249 | 1.6 | 4.8 | 0.00 | 0.00 | 0.00 | 45 | 1014.8 |
| 20260506163255 | 17 | 250 | 0.0 | 3.2 | 0.00 | 0.00 | 0.00 | 42 | 1014.9 |
| 20260506162752 | 17 | 249 | 1.6 | 4.8 | 0.00 | 0.00 | 0.00 | 49 | 1014.9 |
| 20260506162252 | 17 | 250 | 1.6 | 4.8 | 0.00 | 0.00 | 0.00 | 44 | 1015.0 |
| 20260506161751 | 16 | 250 | 1.6 | 4.8 | 0.00 | 0.00 | 0.00 | 44 | 1015.1 |
| 20260506161253 | 16 | 250 | 1.6 | 4.8 | 0.00 | 0.00 | 0.00 | 47 | 1015.1 |
| 20260506160752 | 16 | 250 | 1.6 | 4.8 | 0.00 | 0.00 | 0.00 | 43 | 1015.1 |
| 20260506160251 | 16 | 250 | 1.6 | 4.8 | 0.00 | 0.00 | 0.00 | 47 | 1015.1 |
| 20260506155749 | 15 | 250 | 1.6 | 4.8 | 0.00 | 0.00 | 0.00 | 47 | 1015.2 |
| 20260506155248 | 15 | 250 | 1.6 | 4.8 | 0.00 | 0.00 | 0.00 | 46 | 1015.1 |
| 20260506154749 | 15 | 250 | 1.6 | 4.8 | 0.00 | 0.00 | 0.00 | 46 | 1015.2 |
| 20260506153747 | 15 | 250 | 1.6 | 4.8 | 0.00 | 0.00 | 0.00 | 46 | 1015.3 |
| 20260506153247 | 15 | 250 | 1.6 | 4.8 | 0.00 | 0.00 | 0.00 | 46 | 1015.3 |
| 20260506152746 | 14 | 250 | 1.6 | 4.8 | 0.00 | 0.00 | 0.00 | 48 | 1015.3 |
| 20260506152246 | 14 | 249 | 1.6 | 4.8 | 0.00 | 0.00 | 0.00 | 47 | 1015.4 |
| 20260506151744 | 14 | 250 | 1.6 | 3.2 | 0.00 | 0.00 | 0.00 | 49 | 1015.3 |
| 20260506151244 | 14 | 249 | 1.6 | 3.2 | 0.00 | 0.00 | 0.00 | 49 | 1015.3 |
| 20260506150742 | 14 | 250 | 0.0 | 3.2 | 0.00 | 0.00 | 0.00 | 47 | 1015.2 |
| 20260506150242 | 13 | 250 | 0.0 | 3.2 | 0.00 | 0.00 | 0.00 | 49 | 1015.2 |
| 20260506145740 | 13 | 249 | 0.0 | 3.2 | 0.00 | 0.00 | 0.00 | 49 | 1015.2 |
| 20260506144239 | 13 | 250 | 0.0 | 4.8 | 0.00 | 0.00 | 0.00 | 50 | 1015.2 |
| 20260506143740 | 12 | 250 | 0.0 | 4.8 | 0.00 | 0.00 | 0.00 | 52 | 1015.2 |
| 20260506143239 | 12 | 249 | 0.0 | 3.2 | 0.00 | 0.00 | 0.00 | 53 | 1015.2 |
| 20260506142740 | 12 | 250 | 0.0 | 3.2 | 0.00 | 0.00 | 0.00 | 53 | 1015.3 |
| 20260506142239 | 12 | 250 | 0.0 | 3.2 | 0.00 | 0.00 | 0.00 | 55 | 1015.3 |
| 20260506141738 | 12 | 250 | 0.0 | 3.2 | 0.00 | 0.00 | 0.00 | 54 | 1015.3 |
| 20260506140737 | 11 | 250 | 1.6 | 4.8 | 0.00 | 0.00 | 0.00 | 55 | 1015.2 |
| 20260506140235 | 11 | 250 | 1.6 | 4.8 | 0.00 | 0.00 | 0.00 | 55 | 1015.1 |
| 20260506135734 | 11 | 250 | 1.6 | 4.8 | 0.00 | 0.00 | 0.00 | 51 | 1015.2 |
| 20260506135234 | 11 | 250 | 1.6 | 4.8 | 0.00 | 0.00 | 0.00 | 54 | 1015.1 |
| 20260506134735 | 10 | 250 | 0.0 | 3.2 | 0.00 | 0.00 | 0.00 | 57 | 1015.1 |
| 20260506134233 | 10 | 250 | 0.0 | 3.2 | 0.00 | 0.00 | 0.00 | 55 | 1015.1 |
| 20260506133734 | 10 | 250 | 0.0 | 0.0 | 0.00 | 0.00 | 0.00 | 56 | 1015.0 |
| 20260506133232 | 9 | 250 | 0.0 | 0.0 | 0.00 | 0.00 | 0.00 | 57 | 1015.0 |
| 20260506132230 | 9 | 250 | 0.0 | 1.6 | 0.00 | 0.00 | 0.00 | 57 | 1014.8 |
| 20260506131730 | 8 | 250 | 0.0 | 0.0 | 0.00 | 0.00 | 0.00 | 58 | 1014.8 |
| 20260506131229 | 8 | 250 | 0.0 | 0.0 | 0.00 | 0.00 | 0.00 | 58 | 1014.8 |
| 20260506130726 | 7 | 250 | 0.0 | 0.0 | 0.00 | 0.00 | 0.00 | 60 | 1014.7 |
| 20260506130227 | 7 | 250 | 0.0 | 1.6 | 0.00 | 0.00 | 0.00 | 62 | 1014.7 |
| 20260506125726 | 7 | 250 | 0.0 | 1.6 | 0.00 | 0.00 | 0.00 | 63 | 1014.7 |
| 20260506125227 | 7 | 250 | 0.0 | 4.8 | 0.00 | 0.00 | 0.00 | 63 | 1014.7 |
| 20260506124725 | 7 | 250 | 1.6 | 4.8 | 0.00 | 0.00 | 0.00 | 65 | 1014.7 |
| 20260506124225 | 7 | 250 | 1.6 | 4.8 | 0.00 | 0.00 | 0.00 | 63 | 1014.7 |
| 20260506123724 | 7 | 250 | 0.0 | 4.8 | 0.00 | 0.00 | 0.00 | 63 | 1014.7 |
| 20260506122725 | 6 | 249 | 0.0 | 4.8 | 0.00 | 0.00 | 0.00 | 65 | 1014.7 |
| 20260506121725 | 6 | 250 | 1.6 | 3.2 | 0.00 | 0.00 | 0.00 | 65 | 1014.5 |
| 20260506121223 | 7 | 250 | 1.6 | 6.4 | 0.00 | 0.00 | 0.00 | 64 | 1014.5 |
| 20260506120724 | 7 | 249 | 0.0 | 6.4 | 0.00 | 0.00 | 0.00 | 64 | 1014.5 |
| 20260506120224 | 7 | 250 | 0.0 | 4.8 | 0.00 | 0.00 | 0.00 | 64 | 1014.5 |
| 20260506115725 | 7 | 249 | 0.0 | 1.6 | 0.00 | 0.00 | 0.00 | 64 | 1014.4 |
| 20260506114724 | 7 | 250 | 1.6 | 3.2 | 0.00 | 0.00 | 0.00 | 64 | 1014.2 |
| 20260506114223 | 7 | 250 | 1.6 | 8.0 | 0.00 | 0.00 | 0.00 | 65 | 1014.3 |
| 20260506113724 | 7 | 250 | 1.6 | 8.0 | 0.00 | 0.00 | 0.00 | 64 | 1014.3 |
| 20260506113225 | 7 | 250 | 1.6 | 8.0 | 0.00 | 0.00 | 0.00 | 64 | 1014.3 |
| 20260506112724 | 7 | 250 | 1.6 | 3.2 | 0.00 | 0.00 | 0.00 | 63 | 1014.2 |
| 20260506112223 | 7 | 250 | 1.6 | 3.2 | 0.00 | 0.00 | 0.00 | 63 | 1014.2 |
| 20260506111724 | 7 | 250 | 1.6 | 4.8 | 0.00 | 0.00 | 0.00 | 64 | 1014.3 |
| 20260506111224 | 7 | 250 | 1.6 | 4.8 | 0.00 | 0.00 | 0.00 | 64 | 1014.3 |
| 20260506110725 | 7 | 250 | 1.6 | 6.4 | 0.00 | 0.00 | 0.00 | 63 | 1014.3 |
| 20260506110225 | 7 | 250 | 1.6 | 6.4 | 0.00 | 0.00 | 0.00 | 63 | 1014.2 |
| 20260506105724 | 8 | 250 | 1.6 | 4.8 | 0.00 | 0.00 | 0.00 | 62 | 1014.2 |
| 20260506104723 | 8 | 250 | 0.0 | 3.2 | 0.00 | 0.00 | 0.00 | 57 | 1014.2 |
| 20260506104224 | 8 | 250 | 0.0 | 3.2 | 0.00 | 0.00 | 0.00 | 57 | 1014.1 |
| 20260506103726 | 8 | 250 | 0.0 | 0.0 | 0.00 | 0.00 | 0.00 | 57 | 1014.1 |
| 20260506102725 | 8 | 250 | 1.6 | 4.8 | 0.00 | 0.00 | 0.00 | 60 | 1014.2 |
| 20260506102221 | 8 | 250 | 1.6 | 6.4 | 0.00 | 0.00 | 0.00 | 58 | 1014.1 |
| 20260506101712 | 8 | 250 | 1.6 | 6.4 | 0.00 | 0.00 | 0.00 | 60 | 1014.0 |
| 20260506100710 | 8 | 250 | 1.6 | 4.8 | 0.00 | 0.00 | 0.00 | 60 | 1014.1 |
| 20260506100209 | 8 | 250 | 1.6 | 4.8 | 0.00 | 0.00 | 0.00 | 59 | 1014.0 |
| 20260506095709 | 8 | 250 | 1.6 | 4.8 | 0.00 | 0.00 | 0.00 | 58 | 1014.0 |
| 20260506095208 | 9 | 250 | 0.0 | 1.6 | 0.00 | 0.00 | 0.00 | 58 | 1013.9 |
| 20260506094706 | 9 | 249 | 0.0 | 3.2 | 0.00 | 0.00 | 0.00 | 57 | 1013.9 |
| 20260506094205 | 9 | 249 | 0.0 | 3.2 | 0.00 | 0.00 | 0.00 | 56 | 1013.9 |
| 20260506093203 | 9 | 249 | 0.0 | 1.6 | 0.00 | 0.00 | 0.00 | 56 | 1014.0 |
| 20260506092703 | 10 | 250 | 0.0 | 1.6 | 0.00 | 0.00 | 0.00 | 55 | 1013.9 |
| 20260506092201 | 10 | 250 | 0.0 | 0.0 | 0.00 | 0.00 | 0.00 | 55 | 1014.0 |
| 20260506091700 | 10 | 250 | 0.0 | 3.2 | 0.00 | 0.00 | 0.00 | 55 | 1014.0 |
| 20260506091159 | 10 | 250 | 0.0 | 3.2 | 0.00 | 0.00 | 0.00 | 55 | 1014.0 |
| 20260506090659 | 10 | 250 | 0.0 | 3.2 | 0.00 | 0.00 | 0.00 | 55 | 1014.0 |
| 20260506090156 | 10 | 250 | 0.0 | 3.2 | 0.00 | 0.00 | 0.00 | 55 | 1014.0 |
| 20260506085657 | 10 | 249 | 1.6 | 6.4 | 0.00 | 0.00 | 0.00 | 55 | 1014.0 |
| 20260506085156 | 10 | 250 | 1.6 | 6.4 | 0.00 | 0.00 | 0.00 | 55 | 1014.0 |
| 20260506084653 | 10 | 250 | 1.6 | 4.8 | 0.00 | 0.00 | 0.00 | 56 | 1013.9 |
| 20260506084154 | 10 | 250 | 0.0 | 4.8 | 0.00 | 0.00 | 0.00 | 56 | 1014.1 |
| 20260506083651 | 10 | 250 | 0.0 | 1.6 | 0.00 | 0.00 | 0.00 | 54 | 1014.0 |
| 20260506083152 | 10 | 249 | 0.0 | 1.6 | 0.00 | 0.00 | 0.00 | 53 | 1014.0 |
| 20260506082652 | 11 | 250 | 0.0 | 1.6 | 0.00 | 0.00 | 0.00 | 52 | 1014.0 |
| 20260506082151 | 11 | 250 | 1.6 | 8.0 | 0.00 | 0.00 | 0.00 | 50 | 1013.9 |
| 20260506081650 | 11 | 250 | 1.6 | 8.0 | 0.00 | 0.00 | 0.00 | 50 | 1013.9 |
| 20260506081151 | 11 | 250 | 0.0 | 6.4 | 0.00 | 0.00 | 0.00 | 49 | 1013.9 |
| 20260506080650 | 11 | 250 | 0.0 | 4.8 | 0.00 | 0.00 | 0.00 | 48 | 1013.9 |
| 20260506080149 | 11 | 250 | 0.0 | 4.8 | 0.00 | 0.00 | 0.00 | 49 | 1013.8 |
| 20260506073143 | 12 | 250 | 0.0 | 8.0 | 0.00 | 0.00 | 0.00 | 47 | 1013.5 |
| 20260506072642 | 12 | 250 | 1.6 | 6.4 | 0.00 | 0.00 | 0.00 | 48 | 1013.6 |
| 20260506071641 | 12 | 250 | 1.6 | 6.4 | 0.00 | 0.00 | 0.00 | 49 | 1013.6 |
| 20260506071139 | 12 | 249 | 1.6 | 8.0 | 0.00 | 0.00 | 0.00 | 48 | 1013.6 |
| 20260506070640 | 12 | 250 | 1.6 | 8.0 | 0.00 | 0.00 | 0.00 | 47 | 1013.4 |